www.pogodaiklimat.ru

Погода и климат >> Архив погоды >> Россия >> Краснодарский край >> Геленджик


АРХИВ ПОГОДЫ в Геленджике

Время (UTC), дата Ветер
(напр.,м/с)
 
Видим.   Явления Облачность Т
(С)
Тd
(С)
f
(%)
Тe
(С)
Тes
(С)
Комфортность P
(гПа)
Po
(гПа)
Тmin
(С)
Tmax
(С)
R
(мм)
R24
(мм)
S
(см)
15 14.06 Ю 1 20 км ясно +27.5 +17.3 54 +32 +35 очень
душно
1004.3 1002.5 +30.2
18 14.06 В 1 10 км ясно +24.0 +16.6 63 +27 +27 жарко 1003.9 1002.0
21 14.06 ЮВ 2 10 км ясно +26.5 +17.7 58 +31 +31 душно 1004.4 1002.6
00 15.06 В 1 10 км ясно +24.9 +14.8 53 +28 +28 жарко 1004.5 1002.6
03 15.06 штиль 0 50 км 3/0 2000 м
[Ac trans]
+23.8 +16.0 62 +27 +28 жарко 1004.4 1002.5 +23.0
06 15.06 ЮВ 2 50 км 8/0
[Ac As Cc]
+25.1 +16.8 60 +29 +34 душно 1005.6 1003.7
09 15.06 З 1 50 км 8/0
[Ac As Cc]
+26.5 +19.7 66 +32 +44 очень
душно
1005.9 1004.1
12 15.06 З 2 20 км в посл. час ливневой дождь 8/3 1000 м
[Cb cap Ac As Cc]
+24.9 +20.0 74 +30 +37 душно 1006.3 1004.4
15 15.06 З 3 50 км 8/1 1000 м
[Cu hum Ac As Cc]
+25.7 +20.0 71 +32 +33 очень
душно
1005.3 1003.5 +27.4 0.0
18 15.06 ЮЗ 1 10 км зарница 8/3 600 м
[Cb cap Ac As Cc]
+23.2 +19.7 81 +30 +30 очень
душно
1006.2 1004.3
21 15.06 В 2 10 км 8/3 1000 м
[Cu hum Ac As Cc]
+23.0 +21.4 91 +31 +31 очень
душно
1006.8 1004.9
00 16.06 штиль 0 10 км 10/5 300 м
[St Ac As]
+22.8 +20.4 86 +30 +30 очень
душно
1007.7 1005.8
03 16.06 СВ 1 10 км {ливн. осадки} 10/4 600 м
[Cb cap Ac und]
+22.0 +20.5 91 +28 +28 душно 1007.7 1005.8 +21.9 0.3
06 16.06 штиль 0 10 км в посл. час ливневой дождь 10/10 600 м
[Cb cap]
+23.9 +20.1 79 +29 +29 душно 1009.0 1007.1
09 16.06 З 1 20 км в посл. час ливневой дождь 10/10 600 м
[Cb cap]
+25.0 +18.9 69 +30 +30 душно 1009.2 1007.3
12 16.06 Ю 1 20 км {ливн. осадки} 10/10 600 м
[Cb cap]
+24.7 +19.9 75 +30 +30 очень
душно
1009.6 1007.7
15 16.06 ЮВ 1 20 км 10/10 600 м
[Sc]
+23.9 +18.9 74 +29 +29 душно 1009.2 1007.3 +25.4
18 16.06 СВ 1 10 км 10/10 600 м
[Cb cap]
+22.1 +18.9 82 +27 +27 душно 1008.7 1006.8
21 16.06 СВ 3 10 км 10/10 600 м
[Sc]
+23.5 +15.8 62 +27 +27 душно 1008.1 1006.2
00 17.06 В 1 10 км 10/10 600 м
[Sc]
+22.3 +15.9 67 +26 +26 жарко 1007.8 1005.9
03 17.06 В 1 10 км 10/10 600 м
[Sc]
+22.5 +16.5 69 +27 +27 душно 1007.4 1005.5 +22.1
06 17.06 ЮВ 1 20 км 10/3 1000 м
[Sc Ac trans]
+23.9 +17.6 68 +28 +31 душно 1007.7 1005.8
09 17.06 ЮВ 1 20 км 10/10 600 м
[Sc]
+24.9 +19.8 73 +30 +30 душно 1008.1 1006.2
12 17.06 Ю 1 50 км 10/10 1000 м
[Cb cap]
+24.5 +19.8 75 +30 +30 очень
душно
1007.6 1005.7
15 17.06 Ю 1 50 км {гроза} 10/4 600 м
[Sc diur, vesp Ac und]
+24.6 +19.2 72 +30 +30 очень
душно
1006.8 1004.9 +25.5
18 17.06 СВ 3 10 км {гроза} 10/4 600 м
[Sc Ac trans Cc]
+23.2 +13.0 53 +26 +26 жарко 1007.2 1005.3
21 17.06 штиль 0 10 км 10/6 600 м
[Sc diur, vesp Ac und Cc]
+22.3 +13.3 57 +25 +25 комфорт 1006.9 1005.0
00 18.06 ЮВ 2 10 км 4/0
[Cc]
+20.4 +13.4 64 +23 +23 комфорт 1006.4 1004.5
03 18.06 Ю 1 50 км 6/0
[Cc]
+22.0 +14.0 60 +25 +26 комфорт 1005.9 1004.0 +18.6
06 18.06 СВ 3 50 км 8/0
[Cc]
+27.0 +13.1 42 +29 +36 жарко 1005.5 1003.7
09 18.06 ЮЗ 2 50 км 4/3 600 м
[Cu med, cong Cc]
+26.3 +17.8 60 +31 +44 душно 1005.9 1004.1
12 18.06 СВ 3 10 км гроза, ливневой дождь 10/10 600 м
[Cb cap]
+22.0 +17.6 76 +27 +27 душно 1008.1 1006.2
15 18.06 ЮВ 1 20 км {гроза, снег} 10/4 600 м
[Sc diur, vesp Ac trans Cc]
+23.0 +17.1 69 +28 +29 душно 1007.1 1005.2 +28.6 4
18 18.06 ЮВ 1 10 км {гроза, ливн. осадки} 8/4 1000 м
[Sc Ac trans Cc]
+20.7 +16.3 76 +25 +25 комфорт 1007.6 1005.7
21 18.06 В 2 10 км 4/0
[Cc]
+21.2 +14.3 65 +24 +24 комфорт 1007.8 1005.9
00 19.06 СВ 2 10 км 3/0
[Cc]
+20.1 +14.0 68 +23 +23 комфорт 1008.4 1006.5
03 19.06 В 1 50 км 4/0
[Ci]
+21.8 +15.0 65 +25 +26 комфорт 1009.5 1007.6 +19.9 4
06 19.06 ЮВ 1 50 км 4/0
[Ci fib]
+25.9 +15.9 54 +29 +40 душно 1010.5 1008.6
09 19.06 Ю 1 50 км 4/3 600 м
[Cu med, cong Ci fib]
+26.3 +18.6 63 +31 +47 душно 1011.3 1009.4
12 19.06 ЮЗ 1 50 км 4/3 600 м
[Cu med, cong Ci fib]
+26.7 +19.1 63 +32 +43 очень
душно
1011.6 1009.7
15 19.06 З 2 50 км 3/3 600 м
[Cu hum]
+25.5 +18.8 66 +30 +32 душно 1011.5 1009.6 +27.7
18 19.06 ЮЗ 1 10 км ясно +22.7 +19.2 81 +29 +29 очень
душно
1011.8 1009.9
21 19.06 СВ 2 10 км ясно +18.8 +16.5 86 +21 +21 комфорт 1011.9 1010.0
00 20.06 ЮВ 2 10 км ясно +23.2 +10.8 46 +25 +25 комфорт 1012.0 1010.1
03 20.06 В 1 50 км ясно +23.9 +7.8 36 +24 +25 комфорт 1013.0 1011.1 +18.5
06 20.06 ЮВ 1 50 км ясно +27.2 +13.4 43 +29 +41 жарко 1013.6 1011.7
09 20.06 ЮЗ 1 50 км ясно +26.6 +20.5 69 +33 +55 опасность
солнечного
удара
1014.3 1012.4
12 20.06 ЮЗ 2 50 км ясно +27.7 +20.8 66 +35 +49 очень
душно
1013.7 1011.9
15 20.06 ЮВ 1 50 км ясно +26.5 +20.7 70 +33 +36 очень
душно
1013.3 1011.4 +28.7
18 20.06 СВ 4 10 км ясно +27.4 +10.8 35 +28 +28 жарко 1013.7 1011.8
21 20.06 СВ 4 10 км ясно +27.1 +8.6 31 +27 +27 жарко 1013.7 1011.8
00 21.06 ЮВ 2 10 км ясно +23.8 +11.0 45 +25 +25 комфорт 1013.9 1012.0
03 21.06 штиль 0 50 км ясно +22.1 +15.1 65 +26 +27 душно 1014.5 1012.6 +20.0
06 21.06 ЮВ 2 50 км ясно +25.7 +18.3 64 +30 +41 душно 1015.1 1013.2
09 21.06 ЮВ 2 50 км ясно +26.2 +20.8 72 +33 +52 опасность
солнечного
удара
1014.7 1012.8
12 21.06 ЮЗ 1 50 км 3/3 1000 м
[Cu hum]
+27.3 +21.0 69 +34 +46 очень
душно
1013.5 1011.7

 

Местоположение метеостанции Геленджик (Краснодарский край, Россия): широта 44.57 долгота 38.08 высота над уровнем моря 15 м.

В архиве по умолчанию представлена погода в Геленджике за последнюю неделю. Архивные данные за месяц целиком и за предыдущие месяцы, начиная с января 2011 года, Вы можете получить, выбрав интересующий диапазон дат из раскрывающегося списка и нажав кнопку "Ввод!".


*Определитесь, кто Вы:
робот инопланетянин человек

Внимание! Время в таблицах - всемирное. Для получения местного времени необходимо прибавить поправку, которая в Геленджике равна 3 ч.

Смотрите также архив погоды в соседних городах и на ближайших метеорологических станциях:

Погода в Новороссийске (Краснодарский край, Россия) (25 км)
Погода в Крымске (Краснодарский край, Россия) (39 км)
Погода в Джубге (Краснодарский край, Россия) (57 км)
Погода в Анапе (Краснодарский край, Россия) (72 км)
Погода в Славянске-на-Кубани (Краснодарский край, Россия) (79 км)
Погода в Горячем Ключе (Краснодарский край, Россия) (81 км)
Погода в Краснодаре (Краснодарский край, Россия) (92 км)
Погода в Туапсе (Краснодарский край, Россия) (95 км)
Погода в Горном (Краснодарский край, Россия) (100 км)
Погода в Темрюке (Краснодарский край, Россия) (100 км)

Пояснения к столбцам:

Ветер - указаны скорость ветра в м/с - средняя за 10 мин, порывы в срок и между сроками (в фигурных скобках) и направление, откуда дует ветер: С - северный, СВ - северо-восточный, В - восточный, ЮВ - юго-восточный, Ю - южный, ЮЗ - юго-западный, З - западный, СЗ - северо-западный.
Видимость - горизонтальная дальность видимости в метрах или километрах. При видимости от 1 до 10 км при отсутствии осадков обычно наблюдается дымка, при ухудшении видимости до 1 км и менее - туман. В сухую погоду видимость может ухудшаться дымом, пылью или мглою.
Явления - указаны атмосферные явления, наблюдавшиеся в срок или в последний час перед сроком; фигурными скобками обозначены явления, наблюдавшиеся между сроками (за 1-3 часа до срока); квадратными скобками обозначены град или гололедные отложения с указанием их диаметра в мм.
Облачность - указаны через наклонную черту общая и нижняя облачность в баллах и высота нижней границы облаков в метрах; квадратными скобками обозначены формы облаков: Ci - перистые, Cs - перисто-слоистые, Cc - перисто-кучевые, Ac - высококучевые, As - высокослоистые, Sc - слоисто-кучевые, Ns - слоисто-дождевые, Cu - кучевые, Cb - кучево-дождевые. Подробнее классификацию облаков см. в Атласе облаков (PDF).
T - Температура воздуха - температура, измеренная на высоте 2 м над землей.
Td - Температура точки росы - температура, при понижении до которой содержащийся в воздухе водяной пар достигнет насыщения.
f - Относительная влажность воздуха - влажноcть воздуха, измеренная на высоте 2 м над землей.
Te - Эффективная температура - температура, которую ощущает одетый по сезону человек в тени. Характеристика душности погоды. При расчете учитывается влияние влажности воздуха и скорости ветра на теплоощущения человека.
Tes - Эффективная температура на солнце - температура, которую ощущает человек, с поправкой на солнечный нагрев. Характеристика знойности погоды. Зависит от высоты солнца над горизонтом, облачности и скорости ветра. Ночью, в пасмурную погоду, а также при ветре 12 м/с и более поправка равна нулю.
P - Атмосферное давление - приведенное к уровню моря атмосферное давление.
Po - Атмосферное давление - измеренное на уровне метеостанции атмосферное давление.
Tmin - Минимальная температура - минимум температуры воздуха на высоте 2 м над землей.
Tmax - Максимальная температура - максимум температуры воздуха на высоте 2 м над землей.
R - Количество осадков - Количество выпавших осадков за период времени, мм. При наведении курсора мыши на число - период времени, за который выпало указанное количество осадков.
R24 - Количество осадков - Количество выпавших осадков за 24 часа, мм.
S - Снежный покров - Высота снежного покрова, см. При наведении курсора мыши на число - состояние снежного покрова и степень покрытия местности в баллах.